Total_Precipitation_Accumulation
0.00 0.00 0.00 0.00 0.00 0.00 0.00 0.00 0.00 0.00 0.00 0.00 0.00 0.00 0.00 0.00 0.00 0.00 0.00 0.00 0.00 0.03 0.03 0.01 0.05 0.18 0.31 0.22 0.15 0.12 0.18 0.56 0.82 0.70 0.84 0.49 0.24 0.06 0.02 0.02 0.02 0.03 0.10
0.00 0.00 0.00 0.00 0.00 0.00 0.00 0.00 0.00 0.00 0.00 0.00 0.00 0.00 0.00 0.00 0.00 0.00 0.00 0.00 0.03 0.11 0.17 0.11 0.09 0.15 0.21 0.19 0.12 0.12 0.11 0.11 0.29 0.36 0.36 0.26 0.17 0.04 0.06 0.11 0.02 0.03 0.06
0.00 0.00 0.00 0.00 0.00 0.00 0.00 0.00 0.00 0.00 0.00 0.00 0.00 0.00 0.00 0.00 0.00 0.00 0.00 0.00 0.06 0.15 0.21 0.21 0.16 0.16 0.09 0.06 0.06 0.05 0.03 0.03 0.03 0.05 0.16 0.15 0.04 0.08 0.09 0.20 0.05 0.06 0.04
0.00 0.00 0.00 0.00 0.00 0.00 0.00 0.00 0.00 0.00 0.00 0.00 0.00 0.00 0.00 0.00 0.00 0.00 0.00 0.01 0.06 0.08 0.22 0.37 0.23 0.16 0.12 0.03 0.04 0.02 0.02 0.01 0.03 0.04 0.07 0.10 0.02 0.06 0.09 0.09 0.05 0.05 0.04
0.00 0.00 0.00 0.00 0.00 0.00 0.00 0.00 0.00 0.00 0.00 0.00 0.00 0.00 0.00 0.00 0.00 0.00 0.00 0.00 0.01 0.06 0.15 0.22 0.26 0.17 0.10 0.00 0.00 0.01 0.02 0.02 0.03 0.01 0.04 0.07 0.03 0.03 0.02 0.01 0.02 0.02 0.02
0.00 0.00 0.00 0.00 0.00 0.00 0.00 0.00 0.00 0.00 0.00 0.00 0.00 0.00 0.00 0.00 0.00 0.00 0.00 0.00 0.00 0.01 0.03 0.18 0.23 0.19 0.14 0.00 0.00 0.01 0.02 0.01 0.02 0.01 0.01 0.11 0.16 0.03 0.03 0.02 0.03 0.03 0.01
0.00 0.00 0.00 0.00 0.00 0.00 0.00 0.00 0.00 0.00 0.00 0.00 0.00 0.00 0.00 0.01 0.00 0.00 0.00 0.00 0.00 0.00 0.00 0.02 0.06 0.06 0.14 0.01 0.00 0.03 0.03 0.02 0.05 0.31 0.19 0.05 0.07 0.03 0.07 0.01 0.01 0.04 0.02
0.00 0.00 0.00 0.00 0.00 0.00 0.00 0.00 0.00 0.00 0.00 0.00 0.00 0.00 0.00 0.00 0.01 0.00 0.00 0.00 0.00 0.00 0.00 0.00 0.01 0.01 0.03 0.00 0.03 0.05 0.04 0.02 0.03 0.69 0.22 0.08 0.06 0.04 0.06 0.01 0.01 0.02 0.01
0.00 0.00 0.00 0.00 0.00 0.00 0.00 0.00 0.00 0.00 0.00 0.00 0.00 0.00 0.00 0.00 0.02 0.01 0.00 0.00 0.00 0.00 0.00 0.00 0.00 0.01 0.00 0.02 0.05 0.04 0.12 0.02 0.01 0.05 0.09 0.03 0.06 0.09 0.06 0.00 0.00 0.00 0.00
0.00 0.00 0.00 0.00 0.00 0.00 0.00 0.00 0.00 0.00 0.00 0.00 0.00 0.00 0.00 0.00 0.00 0.00 0.00 0.00 0.00 0.00 0.00 0.00 0.03 0.06 0.05 0.10 0.06 0.03 0.14 0.16 0.05 0.04 0.14 0.13 0.13 0.23 0.20 0.04 0.00 0.00 0.00
0.00 0.00 0.00 0.00 0.00 0.00 0.00 0.00 0.00 0.00 0.00 0.00 0.00 0.01 0.00 0.00 0.00 0.00 0.00 0.00 0.00 0.00 0.00 0.01 0.05 0.12 0.09 0.06 0.07 0.06 0.09 0.10 0.09 0.02 0.11 0.24 0.18 0.16 0.10 0.07 0.02 0.01 0.01
0.00 0.00 0.00 0.00 0.00 0.00 0.00 0.00 0.00 0.00 0.00 0.00 0.00 0.00 0.00 0.00 0.00 0.00 0.00 0.02 0.00 0.01 0.04 0.02 0.00 0.01 0.03 0.02 0.01 0.08 0.05 0.02 0.04 0.01 0.03 0.17 0.23 0.18 0.09 0.05 0.02 0.02 0.01
0.00 0.00 0.00 0.00 0.00 0.00 0.00 0.00 0.00 0.00 0.00 0.00 0.00 0.00 0.00 0.00 0.00 0.00 0.00 0.01 0.00 0.02 0.01 0.01 0.00 0.00 0.02 0.03 0.09 0.19 0.06 0.01 0.02 0.05 0.04 0.06 0.13 0.11 0.06 0.03 0.03 0.02 0.01
0.00 0.00 0.00 0.00 0.00 0.00 0.00 0.00 0.00 0.00 0.00 0.00 0.00 0.00 0.00 0.00 0.00 0.00 0.00 0.00 0.00 0.00 0.00 0.00 0.00 0.00 0.03 0.00 0.02 0.02 0.03 0.02 0.04 0.20 0.12 0.04 0.05 0.08 0.04 0.03 0.03 0.03 0.01
0.00 0.00 0.00 0.00 0.00 0.00 0.00 0.00 0.00 0.00 0.00 0.00 0.00 0.00 0.00 0.00 0.00 0.00 0.00 0.00 0.00 0.00 0.00 0.00 0.00 0.00 0.00 0.03 0.07 0.03 0.01 0.01 0.03 0.13 0.16 0.10 0.03 0.05 0.06 0.03 0.03 0.04 0.02
0.00 0.00 0.00 0.00 0.00 0.00 0.00 0.00 0.00 0.00 0.00 0.00 0.00 0.00 0.00 0.00 0.00 0.00 0.00 0.01 0.02 0.00 0.00 0.01 0.04 0.05 0.18 0.28 0.41 0.26 0.09 0.02 0.03 0.05 0.11 0.12 0.02 0.02 0.03 0.02 0.03 0.04 0.03
0.00 0.00 0.00 0.00 0.00 0.00 0.00 0.00 0.00 0.00 0.00 0.00 0.00 0.00 0.00 0.00 0.01 0.00 0.00 0.00 0.01 0.00 0.01 0.04 0.10 0.09 0.10 0.11 0.39 0.17 0.04 0.01 0.03 0.04 0.06 0.09 0.06 0.04 0.01 0.01 0.02 0.04 0.03
0.00 0.00 0.00 0.00 0.00 0.00 0.00 0.00 0.00 0.00 0.00 0.00 0.00 0.00 0.00 0.00 0.00 0.01 0.00 0.00 0.00 0.05 0.08 0.16 0.07 0.05 0.08 0.08 0.14 0.08 0.01 0.01 0.02 0.03 0.04 0.03 0.01 0.02 0.00 0.00 0.01 0.03 0.03
0.00 0.00 0.00 0.00 0.02 0.04 0.07 0.03 0.01 0.00 0.00 0.00 0.00 0.00 0.00 0.01 0.01 0.01 0.01 0.00 0.00 0.05 0.11 0.06 0.05 0.14 0.12 0.08 0.13 0.13 0.04 0.01 0.03 0.04 0.04 0.07 0.04 0.00 0.00 0.00 0.00 0.01 0.02
0.00 0.00 0.00 0.01 0.03 0.07 0.10 0.13 0.12 0.08 0.05 0.02 0.02 0.01 0.01 0.02 0.04 0.04 0.03 0.02 0.01 0.06 0.11 0.09 0.09 0.13 0.15 0.16 0.22 0.25 0.12 0.06 0.08 0.06 0.04 0.03 0.04 0.01 0.00 0.00 0.00 0.00 0.01
0.00 0.00 0.00 0.00 0.00 0.07 0.07 0.09 0.07 0.04 0.04 0.04 0.07 0.06 0.04 0.04 0.13 0.17 0.18 0.15 0.10 0.08 0.13 0.21 0.14 0.09 0.06 0.16 0.33 0.28 0.21 0.08 0.06 0.08 0.05 0.01 0.00 0.00 0.00 0.00 0.00 0.00 0.00
0.00 0.00 0.00 0.00 0.00 0.01 0.02 0.02 0.04 0.03 0.05 0.10 0.14 0.08 0.02 0.05 0.09 0.14 0.15 0.21 0.23 0.27 0.17 0.22 0.21 0.15 0.04 0.05 0.19 0.13 0.16 0.17 0.07 0.02 0.02 0.02 0.00 0.00 0.00 0.00 0.00 0.00 0.00
0.00 0.00 0.00 0.00 0.00 0.00 0.02 0.07 0.08 0.13 0.14 0.12 0.08 0.06 0.08 0.11 0.15 0.13 0.14 0.17 0.21 0.28 0.29 0.31 0.26 0.16 0.08 0.06 0.05 0.05 0.04 0.10 0.05 0.04 0.03 0.02 0.00 0.00 0.00 0.00 0.00 0.00 0.00
0.00 0.00 0.00 0.00 0.01 0.02 0.06 0.08 0.07 0.02 0.04 0.06 0.07 0.10 0.18 0.17 0.21 0.19 0.18 0.18 0.15 0.17 0.19 0.20 0.23 0.20 0.12 0.06 0.06 0.02 0.00 0.00 0.01 0.02 0.03 0.08 0.06 0.01 0.00 0.00 0.00 0.00 0.00
0.00 0.00 0.00 0.00 0.01 0.03 0.05 0.06 0.08 0.03 0.01 0.01 0.01 0.03 0.06 0.07 0.12 0.13 0.16 0.17 0.15 0.14 0.13 0.18 0.19 0.15 0.10 0.06 0.03 0.03 0.01 0.00 0.00 0.00 0.00 0.01 0.03 0.01 0.00 0.00 0.00 0.00 0.00
0.00 0.00 0.00 0.00 0.00 0.01 0.02 0.04 0.02 0.02 0.02 0.01 0.00 0.03 0.10 0.08 0.07 0.09 0.12 0.13 0.15 0.14 0.12 0.17 0.21 0.19 0.23 0.18 0.10 0.06 0.02 0.01 0.00 0.00 0.00 0.00 0.01 0.02 0.02 0.01 0.00 0.00 0.00